GEFSSE_500_meanwind_000.txt.gz
Wind_Speed
13 14 17 18 17 15 15 15 14 12 12 13 11 10 9 9 10 11 11 12 13 14 15 16 16 17 18 19 19 20 20 20 20 20 20 20 20 20 19 17 15 14 15
16 14 15 16 15 14 14 14 13 12 13 14 12 12 12 11 11 12 13 14 14 15 16 17 17 18 19 20 21 23 24 24 23 22 23 23 24 24 23 21 19 18 17
13 12 13 12 10 10 12 11 10 11 13 14 14 14 15 15 14 14 15 15 17 18 18 19 19 20 20 21 23 24 25 26 26 26 26 26 27 27 26 25 25 23 22
11 11 9 8 8 8 9 10 11 11 12 14 15 16 16 17 17 17 17 17 18 18 19 20 20 21 21 22 24 26 28 29 29 29 29 29 30 29 28 29 28 28 28
11 9 8 10 10 10 8 8 7 9 10 13 13 14 16 16 17 18 19 19 18 19 20 20 21 23 24 26 26 27 29 31 32 33 33 34 36 35 33 34 34 35 35
9 9 8 8 7 3 4 4 5 8 11 12 12 13 14 14 13 14 15 17 18 19 21 23 25 27 26 26 27 28 30 33 36 37 38 38 40 41 41 41 43 43 43
12 10 7 6 2 1 3 6 10 12 12 12 10 11 11 12 13 14 15 16 18 19 20 22 25 27 26 27 29 31 32 34 38 39 39 41 40 41 42 43 43 42 42
19 12 11 13 10 8 7 7 10 11 11 11 10 10 10 10 12 14 15 15 16 18 19 21 23 26 27 28 31 32 32 35 39 40 40 41 41 41 40 39 38 37 40
18 19 16 18 16 11 9 8 6 8 9 9 10 11 12 13 14 15 16 17 18 19 19 20 22 25 26 27 28 29 31 34 35 36 37 37 37 37 36 35 35 35 36
20 17 14 14 15 12 10 9 8 10 13 14 15 16 17 17 17 18 19 20 20 21 20 20 21 23 24 27 28 29 31 32 33 34 36 37 36 36 35 34 33 32 33
21 19 21 16 12 13 11 11 13 14 16 18 22 23 22 21 21 22 23 23 24 24 23 23 23 24 26 28 30 31 32 33 34 35 37 38 38 37 37 36 34 32 32
23 25 24 21 13 5 11 13 14 13 18 22 24 23 22 22 24 24 24 24 24 25 25 24 24 26 28 29 31 32 32 33 34 35 37 39 39 38 38 37 35 35 35
22 23 22 20 14 5 3 9 11 13 17 19 20 22 23 23 24 24 23 24 25 26 26 25 26 27 28 29 32 35 36 36 36 37 38 40 42 41 40 41 40 40 40
21 22 17 11 8 3 4 9 14 16 18 20 19 20 23 24 24 24 24 23 24 25 27 27 26 27 30 34 37 40 41 41 41 41 42 44 45 46 47 48 46 46 46
18 20 16 14 10 7 11 15 18 22 22 23 26 25 26 26 26 28 29 28 28 29 30 30 30 33 36 38 39 40 42 42 45 46 48 49 50 51 52 53 53 52 51
18 19 19 20 17 13 13 17 21 22 21 20 21 23 27 29 30 30 31 30 32 34 33 31 33 36 39 40 39 39 41 44 46 49 49 50 53 56 58 58 58 53 52
18 18 20 23 20 16 13 14 18 20 21 24 23 24 27 28 27 28 29 32 33 33 33 35 38 40 41 41 42 44 45 45 46 49 50 51 53 57 58 60 63 64 62
19 20 23 24 21 16 13 15 17 19 20 21 21 25 27 26 27 29 31 32 33 35 37 38 41 43 44 44 47 50 51 53 52 53 53 55 57 61 62 61 63 66 68
20 23 25 22 18 15 15 17 19 21 21 21 23 26 26 27 29 31 34 35 36 39 41 41 43 46 47 47 49 52 55 57 57 59 59 60 61 64 66 68 69 70 72
23 25 27 23 20 18 19 21 22 23 23 24 25 25 26 28 31 33 35 38 40 41 42 44 47 49 50 51 53 56 58 59 61 64 65 64 65 66 67 72 75 76 76
25 27 29 28 27 26 26 27 29 28 26 26 26 26 27 29 32 35 38 41 43 45 47 49 51 54 55 57 59 59 60 63 63 57 55 54 56 57 59 65 68 73 79
28 30 33 35 33 32 32 32 32 32 31 30 31 31 32 33 35 40 43 45 46 49 51 52 55 58 59 60 60 59 58 54 50 49 50 51 51 53 55 56 54 53 55
32 34 37 38 37 37 38 39 38 38 38 36 36 35 36 39 43 46 48 48 50 52 53 54 57 59 60 57 53 48 42 40 41 43 44 44 45 47 51 54 53 51 50
35 37 39 40 40 41 41 42 42 43 44 40 41 41 42 47 51 52 52 51 51 53 55 57 59 58 54 46 42 40 40 40 40 41 41 42 44 47 50 51 52 51 51
37 41 42 43 43 43 43 42 41 41 41 41 43 45 48 54 58 56 56 56 56 54 55 59 59 52 44 41 41 41 39 40 44 45 46 45 47 52 55 53 50 49 49
40 41 43 45 44 45 45 44 42 41 42 45 46 51 57 61 62 59 58 58 57 55 57 58 53 44 41 43 43 41 40 42 44 48 50 52 53 55 57 58 52 47 46

GEFSSE_500_meanwind_006.txt.gz
Wind_Speed
12 15 16 15 15 15 15 15 14 14 14 13 11 10 9 9 9 9 9 10 10 11 13 14 15 16 17 17 17 17 17 18 19 19 18 19 21 22 22 22 21 20 19
12 14 15 15 15 14 13 13 13 13 13 13 12 11 10 10 10 10 10 10 12 13 14 15 16 17 17 17 17 18 19 20 21 21 21 22 23 23 23 23 24 22 21
12 12 12 13 12 11 10 9 9 10 11 11 11 11 11 12 12 13 13 13 14 15 16 17 18 18 18 17 17 18 19 20 21 22 23 24 24 24 25 26 26 26 24
11 11 10 10 9 10 10 8 7 8 9 10 11 11 12 13 14 15 15 16 16 17 17 17 17 17 17 17 17 17 18 19 20 21 22 23 24 25 27 28 27 28 29
10 8 8 9 10 12 12 11 9 8 9 9 10 11 12 12 13 14 15 16 17 17 18 18 17 18 19 19 19 20 21 21 21 22 23 24 27 28 29 30 30 31 33
8 8 8 8 9 11 11 11 11 9 9 9 9 9 10 9 9 10 11 13 15 16 16 17 18 19 20 21 22 23 24 24 23 23 24 27 29 30 31 32 33 34 35
7 7 7 6 6 8 8 8 9 9 11 10 9 9 9 10 9 10 11 12 15 16 17 18 19 20 21 22 23 24 25 26 26 27 28 29 30 31 32 32 33 33 32
9 6 2 6 8 9 10 9 10 11 12 11 10 10 11 11 11 12 13 15 17 17 17 18 19 20 22 24 25 25 26 27 28 28 30 30 29 30 31 31 32 32 32
11 8 3 4 8 10 10 11 12 12 12 12 12 12 12 13 15 16 17 18 19 19 20 20 21 23 24 25 26 26 27 29 30 30 31 32 32 32 32 32 32 32 33
12 11 10 5 5 10 13 12 10 10 10 11 13 14 14 16 18 20 20 19 20 21 21 22 23 24 25 26 27 28 29 31 32 33 34 34 34 35 35 35 36 35 35
11 11 9 9 5 6 11 13 11 11 11 14 16 17 18 19 20 20 19 18 19 21 21 22 23 25 26 27 29 31 31 33 34 35 36 36 37 38 38 38 39 39 38
10 10 9 8 7 4 5 9 11 11 12 14 16 17 18 19 20 19 16 16 18 19 20 21 22 24 25 27 28 29 30 31 33 35 36 37 38 39 40 40 41 42 41
8 9 9 9 10 8 7 7 9 11 13 16 17 19 20 21 20 19 18 18 19 19 20 21 22 23 24 26 27 27 27 29 32 34 36 36 38 38 39 41 43 44 44
7 6 7 8 9 9 9 10 11 13 15 17 19 20 20 21 21 20 20 20 20 20 20 22 24 25 26 26 26 27 29 32 34 36 38 38 38 39 41 42 44 46 47
7 6 6 6 6 7 9 10 11 12 14 16 18 19 20 20 19 19 20 19 18 19 21 22 24 25 25 26 28 31 33 36 38 39 41 41 43 45 45 46 47 48 49
8 7 7 6 5 7 8 9 9 11 13 15 17 18 19 18 19 19 19 19 19 20 22 25 26 28 30 32 34 36 37 40 42 43 46 48 48 50 52 51 50 51 52
10 8 7 6 5 7 9 9 9 10 12 15 17 17 18 18 19 20 20 19 20 22 25 28 30 33 35 36 38 40 43 45 47 49 51 53 54 55 56 56 56 56 56
12 10 9 6 5 7 10 12 13 13 14 16 18 18 18 18 19 20 20 21 23 25 27 30 33 36 38 40 42 44 47 50 52 53 55 57 58 59 60 62 63 63 62
15 14 11 9 9 11 13 15 17 18 20 22 23 22 22 21 21 22 23 24 25 27 30 33 36 39 40 42 45 48 52 55 57 58 60 61 62 63 65 68 68 67 67
18 17 14 13 14 16 17 19 20 21 23 25 26 26 27 27 27 28 28 29 30 33 37 40 41 42 43 44 48 52 56 60 62 63 63 64 66 67 68 70 70 70 68
21 19 17 18 20 22 23 24 24 26 28 28 27 28 30 32 33 34 34 34 36 39 42 44 46 47 47 48 52 55 58 61 64 65 64 65 68 69 68 65 63 62 60
28 26 22 22 23 25 27 29 30 31 32 33 32 33 35 37 37 38 39 38 40 43 45 47 49 50 52 54 56 58 59 61 64 65 65 66 66 63 58 53 49 48 47
32 31 30 29 28 29 31 32 34 35 37 38 40 41 42 43 42 42 44 46 48 49 50 52 53 53 55 57 59 59 61 62 65 67 67 63 55 49 48 46 44 43 43
33 34 35 34 32 32 33 35 38 39 40 42 44 45 48 48 48 49 50 52 54 54 54 55 55 56 57 59 61 61 62 63 63 61 56 52 48 45 45 44 43 44 45
36 37 37 37 35 34 36 38 40 42 46 47 47 48 51 52 53 52 51 51 52 53 54 56 57 57 59 61 62 62 61 56 52 49 47 46 46 45 44 44 46 48 49
38 39 40 39 37 37 37 39 42 44 47 49 50 50 49 49 49 48 48 48 49 51 53 56 57 57 59 62 63 61 55 50 48 47 46 45 44 44 47 49 51 52 53

GEFSSE_500_meanwind_012.txt.gz
Wind_Speed
11 14 16 18 19 19 18 19 20 19 19 19 20 19 18 17 17 16 16 15 15 14 14 14 14 14 15 15 15 16 16 16 16 16 17 18 19 18 19 20 21 21 20
14 15 15 15 16 16 15 15 16 16 17 18 19 19 17 16 15 15 15 15 15 15 15 16 16 16 16 17 17 18 18 18 19 19 19 20 21 21 21 22 23 23 22
15 15 14 13 12 11 10 10 11 12 13 15 17 17 16 16 15 15 15 15 15 16 17 17 17 17 17 18 19 19 20 21 22 22 22 22 22 23 24 24 24 24 23
14 15 14 13 11 10 9 9 9 9 10 12 14 15 16 17 16 16 16 17 17 18 18 18 18 18 18 19 19 20 21 23 24 24 23 23 22 24 25 26 26 26 26
11 13 15 14 13 12 10 10 10 11 11 12 13 14 15 16 17 17 18 17 18 18 19 19 19 20 20 20 20 20 21 23 24 25 24 23 24 26 28 28 28 28 29
8 10 12 15 16 14 12 11 11 12 13 13 13 13 13 14 14 15 14 14 14 14 15 16 17 18 19 19 20 21 22 24 26 27 26 25 27 28 29 29 29 30 30
7 8 9 11 13 14 12 11 12 13 13 13 14 14 13 13 13 12 12 12 12 12 13 14 15 17 18 19 20 21 22 24 26 26 25 24 26 28 28 28 29 29 30
7 7 8 9 9 10 11 12 12 13 14 14 14 14 13 13 12 12 13 13 14 14 16 17 17 18 18 19 20 21 22 24 26 26 24 23 25 26 26 27 27 28 28
7 7 7 8 9 9 11 12 14 15 16 16 15 14 13 13 13 13 15 16 18 18 19 20 20 20 21 21 22 23 24 25 26 27 23 22 26 26 25 26 27 28 29
8 9 10 10 10 9 9 12 14 16 17 16 15 14 14 15 15 16 18 19 21 21 21 21 22 23 23 23 24 24 24 25 26 28 23 23 26 26 27 27 28 29 29
9 9 10 11 11 11 9 10 13 15 16 15 15 15 16 17 17 17 18 19 21 21 21 21 21 21 21 21 22 22 23 24 26 28 24 25 27 28 29 29 29 30 31
11 10 10 11 13 13 11 11 11 13 14 14 16 17 17 17 17 17 18 19 19 19 20 21 21 20 19 19 20 21 21 24 27 28 25 25 26 27 29 30 31 32 33
14 13 13 12 13 15 13 13 12 12 13 14 15 16 17 17 17 17 17 18 18 17 19 20 20 19 19 19 21 22 22 24 28 29 26 25 27 29 32 34 35 36 37
18 16 15 16 15 16 16 16 15 13 14 14 14 15 16 16 16 17 16 17 18 17 17 18 18 18 19 21 21 22 23 25 28 30 29 28 29 31 34 37 39 40 41
20 19 19 18 18 18 18 17 16 15 15 14 14 15 16 16 17 17 18 19 19 18 17 18 20 20 21 23 24 25 26 28 30 33 33 33 34 35 37 39 42 45 47
22 21 20 19 19 18 18 18 17 17 16 14 15 16 17 18 19 18 19 20 20 20 20 21 22 23 24 25 26 27 29 31 33 35 37 37 39 40 43 45 47 50 52
23 22 22 20 19 19 19 20 20 20 20 19 19 19 21 21 22 22 21 21 23 24 24 26 27 27 28 29 30 32 34 36 37 39 41 42 44 45 47 49 51 54 55
24 24 24 23 21 21 21 22 22 22 22 21 21 22 24 24 24 25 24 24 26 27 28 30 32 33 34 36 38 39 40 42 43 45 46 48 50 52 53 54 56 58 60
24 24 26 25 24 24 24 23 23 23 22 22 23 25 27 27 28 28 28 29 31 32 33 35 36 38 40 41 43 45 47 48 50 52 54 55 57 58 59 60 62 63 65
26 26 28 29 29 29 28 27 27 26 25 25 25 27 29 30 31 32 32 35 37 38 39 41 42 45 46 48 49 50 52 55 57 59 61 62 63 64 64 65 66 67 69
28 29 30 31 33 34 34 34 33 32 30 30 30 30 32 33 34 34 36 38 41 44 45 46 48 50 51 53 55 55 57 59 62 64 65 66 67 67 67 68 68 69 71
31 32 34 35 37 39 40 40 39 38 37 36 36 36 36 36 36 37 39 41 44 47 48 50 52 53 54 55 57 58 58 60 62 64 66 67 68 69 70 70 71 72 72
33 33 36 37 38 40 42 44 44 44 43 42 42 41 40 39 39 40 42 44 47 49 50 51 52 53 54 55 57 58 58 59 60 64 66 68 69 70 71 72 73 72 68
35 34 36 38 39 41 44 45 46 47 47 47 47 46 44 43 42 42 43 45 48 49 49 51 50 51 53 54 56 58 60 61 62 64 65 66 67 68 70 71 69 65 61
36 33 35 38 41 43 45 47 48 49 50 51 51 50 47 44 44 44 45 47 48 48 48 49 51 53 56 58 60 61 63 63 64 64 64 66 68 69 70 68 63 59 57
34 34 36 39 42 44 45 47 49 50 51 52 52 50 48 45 46 47 47 46 46 47 48 50 53 55 57 60 62 63 63 63 64 65 66 68 70 70 69 66 61 58 57

GEFSSE_500_meanwind_018.txt.gz
Wind_Speed
13 13 12 12 14 16 17 19 20 21 21 21 21 20 20 19 18 17 17 17 17 16 15 15 15 15 15 16 16 15 15 15 16 16 16 17 17 17 18 19 20 20 19
14 14 14 14 15 17 18 20 21 22 21 21 21 20 20 20 19 18 18 18 18 17 16 16 17 17 18 18 18 18 18 18 18 18 18 19 19 19 20 21 22 23 22
13 13 13 14 15 16 18 19 20 20 19 19 19 19 19 19 19 18 18 18 18 18 18 18 18 19 19 20 21 21 20 20 19 19 20 20 20 20 21 22 23 23 23
9 10 11 12 13 14 16 17 19 18 17 17 17 17 17 17 18 17 18 18 18 19 20 20 20 21 22 22 23 23 22 21 20 21 22 22 21 21 21 22 22 22 23
6 6 7 9 11 12 14 16 18 17 16 16 16 15 15 15 16 16 17 19 20 21 22 22 22 23 23 24 25 25 24 23 22 22 23 23 23 23 22 22 23 23 24
7 6 6 7 8 10 13 15 17 17 17 16 15 15 14 14 14 15 17 19 20 21 21 21 21 21 21 22 23 24 23 22 21 21 23 24 24 25 25 24 24 24 25
8 8 8 7 7 8 9 11 13 13 13 13 12 13 13 13 14 15 17 18 19 18 18 18 18 18 19 20 21 23 22 21 20 21 23 24 25 25 25 24 24 24 24
9 9 9 9 8 8 8 9 10 10 10 10 10 12 13 14 15 16 17 18 18 18 18 19 19 20 21 22 23 24 24 23 21 21 23 24 25 25 24 24 24 24 24
10 10 10 8 8 7 7 7 8 9 10 10 12 13 14 15 16 17 18 18 19 20 20 21 22 23 24 24 25 27 28 26 24 23 24 25 26 26 25 24 25 24 25
10 10 10 8 7 7 7 7 7 8 9 10 11 13 14 15 16 16 18 19 21 21 22 23 23 24 24 25 26 28 29 28 26 25 25 26 27 27 26 26 26 26 26
11 10 9 8 7 7 8 7 7 8 8 9 10 12 13 15 16 17 19 20 20 20 20 21 22 22 23 24 25 26 27 27 26 25 25 25 26 27 28 28 28 28 28
12 11 9 9 8 8 8 8 8 9 9 9 9 10 12 14 15 16 17 17 18 18 18 19 20 21 22 23 24 25 26 26 25 25 25 25 26 26 27 29 30 30 30
12 12 11 11 10 8 8 9 9 10 10 10 10 10 11 12 13 13 13 14 15 15 15 16 17 18 20 21 21 22 24 25 25 25 25 25 26 27 28 30 30 31 31
13 14 14 14 12 11 9 10 10 11 12 12 11 11 11 11 11 11 11 11 12 13 13 13 14 15 17 19 20 21 23 25 26 27 27 27 27 28 29 30 31 32 33
14 15 16 16 15 13 12 11 11 13 14 14 13 12 12 13 13 13 13 13 14 14 15 15 15 16 17 18 20 22 24 26 27 28 29 30 30 31 32 33 33 34 35
19 18 17 16 14 13 11 11 12 13 15 15 16 15 15 15 16 17 17 17 17 18 18 19 20 21 22 22 24 25 27 29 31 33 35 36 37 37 38 38 39 40 41
23 23 21 19 17 15 12 11 11 13 15 17 18 19 19 19 20 21 22 22 22 23 24 25 26 27 28 29 29 31 32 34 37 39 42 43 44 45 46 47 47 48 49
28 27 26 24 23 21 18 15 14 15 17 19 21 23 24 25 26 27 29 29 30 30 31 32 33 34 35 35 36 37 38 40 42 44 46 47 49 50 52 53 54 54 56
31 30 29 28 27 27 25 22 20 20 21 23 25 27 28 30 31 33 34 35 36 37 38 38 39 40 41 41 42 43 44 45 46 47 48 50 51 52 54 55 56 58 60
33 33 34 32 31 32 32 30 26 25 26 27 29 30 32 33 35 37 38 40 41 42 43 43 44 45 45 46 46 47 47 48 49 49 50 51 52 53 55 56 58 59 61
37 36 35 34 34 34 33 33 31 30 31 32 33 34 34 36 38 40 42 44 45 46 47 47 48 49 49 49 49 49 50 50 50 50 51 52 53 54 56 58 59 61 62
39 38 38 37 36 36 35 35 34 34 34 36 37 38 38 39 41 44 46 47 48 49 49 49 50 50 51 51 51 51 50 50 50 51 51 53 55 57 59 61 63 64 65
39 39 39 39 40 40 39 37 36 35 36 38 39 40 41 42 44 46 47 48 48 48 48 49 49 50 51 52 53 52 51 50 51 53 55 57 59 61 62 64 65 66 66
38 39 40 41 42 42 41 37 36 36 38 39 39 40 42 44 45 45 47 47 48 48 48 47 47 48 49 51 52 53 53 54 55 56 60 62 64 64 65 66 66 65 64
37 40 41 42 42 42 39 37 36 37 38 39 40 41 42 42 44 46 47 48 48 48 48 47 47 48 49 51 54 56 58 59 61 60 60 62 63 64 64 63 62 63 64
39 41 42 43 43 41 40 37 36 36 37 39 40 40 42 43 44 46 47 47 47 48 48 48 49 50 53 56 58 60 62 63 63 61 59 59 59 59 61 62 63 65 67

GEFSSE_500_meanwind_024.txt.gz
Wind_Speed
10 11 11 11 11 11 10 11 11 11 12 13 13 14 14 14 14 13 13 13 13 13 13 13 13 14 13 13 13 12 13 14 14 15 15 16 15 15 15 15 15 16 16
9 10 10 11 11 11 10 10 11 11 12 13 14 14 14 13 13 13 13 13 13 13 13 13 14 14 15 15 15 15 15 16 16 16 17 17 16 16 16 16 16 17 17
6 8 9 9 10 9 9 9 9 10 11 11 12 13 13 12 12 12 12 13 13 14 14 14 14 15 16 17 17 18 18 18 18 17 17 17 17 17 17 17 17 18 18
6 6 7 8 8 8 8 8 8 8 9 10 10 11 12 12 11 11 12 12 13 14 14 15 16 17 18 18 19 19 20 20 20 20 19 19 19 19 18 18 18 19 19
6 6 6 6 7 7 6 6 6 7 8 9 10 11 11 11 11 10 11 12 13 13 15 16 17 18 18 18 18 18 19 20 20 20 20 20 20 19 19 19 19 20 20
7 7 7 7 7 7 6 6 6 6 7 8 9 9 10 10 10 10 11 12 13 14 15 16 17 17 17 16 15 15 16 18 18 19 19 19 19 19 19 19 20 21 21
8 9 9 9 9 8 7 6 6 6 6 7 7 8 9 9 9 10 11 12 13 14 15 16 17 17 17 16 16 17 17 18 19 19 19 19 20 20 20 21 21 22 22
11 11 12 12 11 10 8 7 6 6 6 6 7 7 8 8 9 11 12 13 13 14 15 17 18 19 19 19 18 18 19 19 19 20 20 20 21 22 22 22 23 23 23
15 14 14 14 13 12 10 8 7 6 5 5 6 6 7 8 9 10 11 12 13 15 17 18 20 21 21 20 19 19 19 19 19 20 20 21 21 22 23 23 23 24 24
17 17 17 16 15 13 11 9 7 6 5 5 5 6 6 7 8 9 10 12 14 16 17 18 20 20 21 20 20 20 19 19 19 19 19 19 19 20 21 21 22 23 23
16 18 18 18 17 15 12 10 8 7 6 5 4 5 5 6 7 9 10 12 13 14 15 16 18 18 18 19 19 19 19 19 18 19 19 19 19 20 21 22 22 23 23
15 17 19 19 19 17 14 12 10 8 7 6 5 5 5 6 7 8 9 10 11 12 13 14 15 16 16 17 18 18 19 19 19 19 19 20 21 22 23 24 24 25 25
13 16 17 18 19 18 16 14 12 10 9 7 6 6 5 6 7 8 9 10 11 12 13 14 15 16 16 17 18 18 19 19 20 20 21 22 23 24 25 26 27 27 28
12 14 16 19 20 19 17 16 15 13 11 10 8 7 7 7 7 8 9 10 11 12 13 14 16 17 18 19 20 21 22 23 24 24 24 25 26 27 28 29 30 31 31
14 15 16 20 21 20 19 17 16 15 14 12 11 9 9 9 9 9 10 11 12 13 14 15 17 18 20 21 23 24 25 27 28 29 29 30 31 32 33 34 34 35 36
14 16 18 20 22 22 22 20 18 17 16 15 14 13 12 12 12 13 13 14 15 17 18 19 21 22 23 25 26 27 28 30 31 32 33 34 35 35 36 37 38 39 40
16 17 19 21 23 24 23 22 21 20 20 19 18 17 17 16 17 18 19 20 21 22 22 23 24 26 27 28 29 31 32 33 34 35 36 36 37 38 38 39 40 40 41
17 18 21 23 25 25 25 24 23 23 24 24 23 22 22 22 22 23 25 26 26 27 27 27 28 30 31 32 33 34 35 36 37 38 39 40 40 41 42 42 42 42 43
18 20 22 25 27 28 28 27 25 26 26 28 28 28 28 27 27 28 30 31 31 31 31 31 32 33 34 35 37 38 39 40 41 41 42 43 44 45 46 46 46 45 45
19 22 25 27 29 30 30 29 29 28 28 30 32 32 31 32 33 33 34 34 34 33 32 32 34 34 36 38 39 40 41 42 42 43 44 45 46 47 48 48 49 49 49
21 24 27 29 31 33 33 32 31 31 30 31 30 33 34 34 35 36 35 34 35 33 32 32 33 35 37 38 39 41 42 43 43 44 45 46 47 49 50 51 51 52 53
23 26 28 31 33 35 35 35 33 33 32 30 29 29 31 33 34 34 34 34 33 33 33 34 35 37 38 38 40 41 42 44 45 46 47 48 50 52 53 55 56 58 59
26 28 30 33 36 37 37 36 36 35 33 30 29 28 28 29 31 32 32 33 34 35 37 37 38 39 40 41 42 43 44 45 47 49 50 52 54 57 58 60 61 62 63
30 31 34 37 38 40 39 38 38 37 36 32 28 27 26 27 28 30 31 34 35 37 38 40 41 43 44 45 45 47 48 49 51 53 54 57 59 62 63 64 64 65 65
35 36 38 40 42 42 41 41 39 39 36 32 28 27 26 27 28 30 34 36 37 40 42 44 45 47 48 49 51 52 53 55 56 58 59 61 63 65 66 66 66 66 66
39 40 42 43 44 43 43 43 40 39 36 31 29 29 27 28 30 32 36 39 41 44 46 48 50 51 53 54 56 57 59 61 62 63 64 63 63 64 66 67 68 68 69

GEFSSE_500_meanwind_030.txt.gz
Wind_Speed
6 5 6 7 8 8 8 9 9 9 9 8 8 7 7 7 7 7 7 7 6 5 4 4 4 4 4 5 6 6 6 7 8 8 9 10 11 11 11 12 12 13 13
4 4 5 5 6 7 8 8 9 10 10 9 7 6 6 6 6 6 7 6 6 5 4 4 4 4 5 6 7 8 8 9 10 10 11 11 12 13 13 13 14 14 14
1 1 1 2 3 4 5 6 7 8 8 7 6 5 5 5 5 5 6 6 6 5 5 4 5 6 7 8 9 10 10 11 12 12 13 13 14 14 14 15 15 16 16
2 3 2 2 1 1 2 4 5 7 7 6 5 5 5 5 5 5 5 5 5 5 5 5 6 6 8 9 10 10 11 12 12 13 13 14 15 15 16 16 17 18 18
4 4 4 4 3 1 0 2 3 4 5 5 5 5 5 5 5 5 5 5 5 5 5 5 6 7 8 9 10 10 11 11 11 12 13 14 15 16 17 17 18 18 19
6 6 7 6 5 3 2 0 1 3 3 3 4 4 4 5 5 5 6 6 6 6 6 6 7 8 9 9 10 10 11 11 12 13 13 14 15 16 17 17 18 18 19
10 10 9 8 7 6 5 3 2 1 2 3 3 4 5 5 6 7 7 8 7 7 7 7 8 9 10 10 11 12 12 13 14 15 15 16 16 17 17 17 17 18 18
13 13 12 11 10 8 6 5 4 2 2 2 4 4 5 6 7 8 9 9 9 8 8 8 9 10 11 12 12 13 14 14 14 15 15 16 16 17 17 18 18 18 18
13 13 12 12 11 10 9 7 5 4 3 3 4 5 7 8 8 9 9 10 10 10 10 10 10 10 11 12 12 12 13 13 14 14 15 15 15 16 16 17 17 17 17
10 11 11 11 11 11 9 8 7 6 5 5 5 7 7 8 9 10 10 10 10 10 11 10 10 10 10 10 10 11 11 11 12 12 13 13 14 14 14 15 15 16 16
7 8 8 9 9 9 9 8 8 7 6 6 6 7 8 9 10 10 10 10 10 10 9 9 9 9 9 9 9 9 9 9 10 10 11 11 12 13 14 15 15 16 17
5 6 8 9 9 9 9 9 8 8 7 7 7 8 8 9 10 10 10 10 10 10 10 9 9 9 8 8 8 8 9 10 10 11 12 13 14 15 16 17 18 18 19
5 7 9 10 11 11 10 10 10 9 9 9 9 9 9 10 10 11 12 11 11 11 10 10 10 9 9 9 9 9 10 11 12 13 15 16 17 18 19 21 22 22 23
6 8 10 12 12 13 13 13 12 12 11 12 12 12 12 12 12 13 13 13 13 13 12 12 12 11 11 11 12 12 13 14 15 16 17 19 20 21 22 24 25 27 28
7 10 12 13 14 14 15 15 15 14 14 15 15 15 15 16 15 15 15 16 16 16 15 15 15 15 15 15 16 16 17 17 19 20 20 22 23 24 25 26 28 30 31
9 11 13 15 15 16 16 17 17 17 17 18 18 19 19 19 19 19 19 19 19 20 19 20 20 20 20 20 20 21 21 21 22 23 23 25 26 27 28 30 31 33 34
12 13 15 16 17 17 18 18 19 20 21 21 22 22 23 23 23 24 24 24 24 25 25 25 25 25 25 25 25 25 25 25 24 25 27 28 29 30 32 33 34 35 36
16 16 17 18 19 19 20 20 21 23 24 25 26 27 27 28 29 30 30 30 31 31 30 30 29 29 29 29 28 28 27 26 26 27 28 30 31 33 33 35 36 37 38
20 20 21 21 21 22 23 23 24 26 28 30 31 32 32 33 34 35 36 36 36 35 35 34 32 31 31 31 30 28 27 27 26 28 30 31 33 35 36 37 38 39 40
24 24 24 24 24 25 26 27 29 31 33 35 35 36 36 37 38 39 39 39 39 38 37 35 33 32 32 31 29 27 28 27 28 30 31 32 34 36 39 40 42 42 44
27 28 28 27 27 28 29 31 34 36 38 39 40 40 39 38 38 38 38 39 39 38 37 36 33 31 30 29 28 28 28 29 30 31 33 35 37 39 41 43 46 47 49
29 30 30 30 30 32 33 36 37 40 42 43 43 42 40 37 36 36 35 33 33 34 34 32 30 28 27 26 27 29 30 31 31 34 36 39 41 43 46 48 50 53 54
30 31 32 32 33 35 37 38 40 43 45 45 44 41 39 37 33 31 30 30 29 28 28 27 26 25 26 27 28 31 33 35 37 38 41 44 46 49 51 54 56 58 59
31 31 32 34 36 37 39 40 42 45 48 48 45 39 36 32 29 29 28 28 27 27 26 25 23 25 27 29 32 35 38 41 44 47 48 49 51 54 57 59 61 62 63
31 32 33 35 37 39 40 42 44 46 47 45 43 41 37 34 29 26 26 26 26 26 26 26 27 29 32 34 36 39 42 45 48 51 55 57 58 60 62 63 65 66 66
32 33 34 36 38 39 41 43 42 43 44 42 42 38 37 33 29 26 26 27 27 28 29 29 31 35 37 39 42 45 47 50 52 55 58 60 62 63 65 66 67 67 68